FW0267 Weather Reports


time (UTC)temp
F
wind
direction
speed
knots
gust
knots
rain 1hr
in
rain 24hr
in
rain mn
in
humidity
%
barometer
mb
20260906070536 0 126 0.0 0.0 0.00 0.61 0.00 1012.0
20260906070034 0 126 0.0 0.0 0.00 0.61 0.00 1012.0
20260906065532 0 126 0.0 0.0 0.00 0.61 0.00 1012.0
20260906065031 0 126 0.0 1.7 0.00 0.61 0.00 1011.9
20260906064529 0 121 0.0 1.7 0.00 0.61 0.00 1012.1
20260906064028 0 121 0.0 0.9 0.00 0.61 0.00 1012.1
20260906063528 0 111 0.0 0.0 0.00 0.61 0.00 1012.2
20260906063027 0 111 0.0 0.0 0.00 0.61 0.00 1012.3
20260906062522 0 111 0.0 0.0 0.00 0.61 0.00 1012.3
20260906062022 0 111 0.0 0.0 0.00 0.61 0.00 1012.2
20260906061519 0 111 0.0 0.9 0.00 0.61 0.00 1012.3
20260906061019 0 111 0.0 0.9 0.00 0.61 0.00 1012.3
20260906060517 0 109 0.0 0.9 0.00 0.61 0.00 1012.3
20260906060015 0 104 0.0 0.9 0.00 0.61 0.00 1012.4
20260906055514 0 149 0.0 0.0 0.00 0.61 0.00 1012.3
20260906055013 0 149 0.0 0.0 0.00 0.61 0.00 1012.4
20260906054511 0 149 0.0 0.0 0.00 0.61 0.00 1012.4
20260906054009 0 149 0.0 0.9 0.00 0.61 0.00 1012.5
20260906053512 0 149 0.0 0.9 0.00 0.61 0.00 1012.3
20260906053006 0 69 0.0 0.9 0.00 0.61 0.00 1012.2
20260906052505 0 103 0.0 0.9 0.00 0.61 0.00 1012.3
20260906052007 0 98 0.0 0.0 0.00 0.61 0.00 1012.5
20260906051504 0 98 0.0 0.0 0.00 0.61 0.00 1012.7
20260906051001 0 98 0.0 0.9 0.00 0.61 0.00 1012.7
20260906050600 0 98 0.0 0.9 0.00 0.61 0.00 1012.6
20260906050058 0 98 0.0 0.9 0.00 0.61 0.00 1012.7
20260906045556 0 115 0.0 0.9 0.00 0.61 0.00 1012.6
20260906045054 0 118 0.0 0.0 0.00 0.61 0.00 1012.6
20260906044554 0 118 0.0 0.0 0.00 0.61 0.00 1012.4
20260906044053 0 118 0.0 0.0 0.00 0.61 0.00 1012.4
20260906043551 0 118 0.0 0.9 0.00 0.61 0.00 1012.4
20260906043055 0 118 0.0 0.9 0.00 0.61 0.00 1012.5
20260906042547 0 107 0.0 0.9 0.00 0.61 0.00 1012.7
20260906042046 0 336 0.0 0.9 0.00 0.61 0.00 1012.7
20260906041545 0 121 0.0 0.0 0.00 0.61 0.00 1012.8
20260906041044 0 121 0.0 0.0 0.00 0.61 0.00 1012.8
20260906040545 0 121 0.0 0.9 0.00 0.61 0.00 1012.7
20260906040041 0 121 0.0 0.9 0.00 0.61 0.00 1012.6
20260906035541 0 80 0.0 0.9 0.00 0.61 0.61 1012.7
20260906035040 0 46 0.0 0.9 0.00 0.61 0.61 1012.8
20260906034540 0 87 0.0 0.0 0.00 0.61 0.61 1012.8
20260906034040 0 87 0.0 0.0 0.00 0.61 0.61 1012.7
20260906033541 0 87 0.0 0.9 0.00 0.61 0.61 1012.6
20260906033047 0 87 0.0 0.9 0.00 0.61 0.61 1012.5
20260906032539 0 105 0.0 0.9 0.00 0.61 0.61 1012.5
20260906032040 0 107 0.0 0.9 0.00 0.61 0.61 1012.8
20260906031540 0 101 0.0 0.0 0.00 0.61 0.61 1012.8
20260906031039 0 101 0.0 0.0 0.00 0.61 0.61 1012.6
20260906030539 0 101 0.0 0.9 0.00 0.61 0.61 1012.6
20260906030043 0 101 0.0 0.9 0.00 0.61 0.61 1012.6
20260906025537 0 98 0.0 0.9 0.00 0.61 0.61 1012.7
20260906025038 0 94 0.0 0.9 0.00 0.61 0.61 1012.8
20260906024544 0 84 0.0 0.0 0.00 0.61 0.61 1012.8
20260906024037 0 84 0.0 0.0 0.00 0.61 0.61 1012.7
20260906023542 0 84 0.0 0.9 0.00 0.61 0.61 1012.6
20260906023048 0 108 0.0 0.9 0.00 0.61 0.61 1012.7
20260906022536 0 113 0.0 0.9 0.00 0.61 0.61 1012.7
20260906022038 0 86 0.0 0.9 0.00 0.61 0.61 1012.5
20260906021537 0 23 0.0 0.0 0.00 0.61 0.61 1012.6
20260906021036 0 23 0.0 0.9 0.00 0.61 0.61 1012.7
20260906020536 0 23 0.0 0.9 0.00 0.61 0.61 1012.5
20260906020046 0 76 0.0 0.9 0.00 0.61 0.61 1012.5
20260906015535 0 100 0.0 0.9 0.00 0.61 0.61 1012.6
20260906015035 0 104 0.0 0.0 0.00 0.61 0.61 1012.7
20260906014536 0 104 0.0 0.0 0.00 0.61 0.61 1012.7
20260906014040 0 104 0.0 0.9 0.00 0.61 0.61 1012.6
20260906013537 0 107 0.0 0.9 0.00 0.61 0.61 1012.4
20260906013047 0 94 0.0 0.9 0.00 0.61 0.61 1012.4
20260906012538 0 49 0.0 0.9 0.00 0.61 0.61 1012.3
20260906012034 0 105 0.0 0.0 0.00 0.61 0.61 1012.3
20260906011542 0 105 0.0 0.0 0.00 0.61 0.61 1012.4
20260906011036 0 105 0.0 1.7 0.00 0.61 0.61 1012.2
20260906010534 0 117 0.0 1.7 0.00 0.61 0.61 1012.0
20260906010039 0 111 0.9 1.7 0.00 0.61 0.61 1011.8
20260906005634 0 129 0.9 1.7 0.00 0.61 0.61 1012.0
20260906005034 0 122 0.0 0.0 0.00 0.61 0.61 1011.9
20260906004534 0 122 0.0 1.7 0.00 0.61 0.61 1011.8
20260906004036 0 122 0.0 1.7 0.00 0.61 0.61 1011.8
20260906003532 0 111 0.0 0.9 0.00 0.61 0.61 1011.8
20260906003035 0 95 0.0 0.9 0.00 0.61 0.61 1011.8
20260906002531 0 120 0.0 0.0 0.00 0.61 0.61 1011.7
20260906002035 0 120 0.0 0.9 0.00 0.61 0.61 1011.5
20260906001535 0 120 0.0 1.7 0.00 0.61 0.61 1011.5
20260906001031 0 100 0.0 1.7 0.00 0.61 0.61 1011.4
20260906000535 0 115 0.0 1.7 0.00 0.61 0.61 1011.3
20260906000047 0 90 0.0 0.0 0.00 0.61 0.61 1011.2
20260905235532 0 90 0.0 0.9 0.00 0.68 0.61 1011.3
20260905235031 0 101 0.0 0.9 0.00 0.68 0.61 1011.3
20260905234530 0 97 0.0 0.9 0.00 0.68 0.61 1011.3
20260905234031 0 68 0.0 0.9 0.00 0.68 0.61 1011.2
20260905233532 0 125 0.0 0.0 0.00 0.68 0.61 1011.1
20260905233029 0 125 0.0 1.7 0.00 0.68 0.61 1010.9
20260905232528 0 125 0.9 1.7 0.00 0.68 0.61 1010.8
20260905232027 0 126 0.9 1.7 0.00 0.68 0.61 1010.9
20260905231528 0 124 0.0 1.7 0.00 0.68 0.61 1011.1
20260905231027 0 111 0.0 0.9 0.00 0.68 0.61 1011.3
20260905230526 0 112 0.0 0.9 0.00 0.68 0.61 1011.3
20260905230026 0 112 0.0 0.9 0.00 0.68 0.61 1011.4
20260905225527 0 75 0.0 1.7 0.00 0.82 0.61 1011.3
20260905225023 0 107 0.0 1.7 0.00 0.82 0.61 1011.1
20260905224522 0 126 0.0 1.7 0.00 0.82 0.61 1011.4
20260905224021 0 123 0.0 0.9 0.00 0.82 0.61 1011.4
20260905223519 0 106 0.0 0.9 0.00 0.82 0.61 1011.2
20260905223018 0 106 0.0 0.9 0.00 0.82 0.61 1011.1
20260905222516 0 85 0.0 0.9 0.00 0.82 0.61 1011.1
20260905222014 0 95 0.0 0.9 0.00 0.82 0.61 1011.0
20260905221513 0 107 0.0 0.9 0.00 0.82 0.61 1011.1
20260905221012 0 125 0.0 0.9 0.00 0.82 0.61 1011.1
20260905220513 0 138 0.0 0.9 0.00 0.82 0.61 1011.1
20260905220012 0 138 0.0 1.7 0.00 0.82 0.61 1011.0
20260905215509 0 98 0.0 1.7 0.00 0.82 0.61 1011.2
20260905215010 0 170 0.0 0.9 0.00 0.82 0.61 1011.2
20260905214508 0 103 0.0 0.9 0.00 0.82 0.61 1011.2
20260905214008 0 123 0.0 0.9 0.00 0.82 0.61 1011.2
20260905213508 0 92 0.0 0.9 0.00 0.82 0.61 1011.2
20260905213009 0 134 0.0 1.7 0.00 0.82 0.61 1011.3
20260905212508 0 134 0.0 1.7 0.00 0.82 0.61 1011.3
20260905212007 0 135 0.0 1.7 0.00 0.82 0.61 1011.2
20260905211507 0 142 0.9 1.7 0.00 0.82 0.61 1011.1
20260905211007 0 136 0.0 0.9 0.00 0.82 0.61 1011.3
20260905210509 0 88 0.0 0.9 0.00 0.82 0.61 1011.3
20260905210006 0 109 0.0 1.7 0.00 0.82 0.61 1011.4
20260905205505 0 109 0.0 1.7 0.00 0.82 0.61 1011.4
20260905205006 0 121 0.9 1.7 0.00 0.82 0.61 1011.4
20260905204508 0 107 0.9 1.7 0.00 0.82 0.61 1011.4
20260905204005 0 84 0.0 0.9 0.00 0.82 0.61 1011.3
20260905203505 0 101 0.0 1.7 0.00 0.82 0.61 1011.2
20260905203005 0 101 0.0 1.7 0.00 0.82 0.61 1011.3
20260905202508 0 122 0.9 1.7 0.00 0.82 0.61 1011.3
20260905202005 0 123 0.9 1.7 0.00 0.82 0.61 1011.3
20260905201508 0 115 0.0 0.9 0.00 0.82 0.61 1011.4
20260905201006 0 125 0.0 0.9 0.01 0.82 0.61 1011.4
20260905200506 0 125 0.0 1.7 0.02 0.82 0.61 1011.4
20260905200005 0 96 0.0 1.7 0.02 0.82 0.61 1011.2
20260905195504 0 5 0.0 1.7 0.02 0.82 0.61 1011.4
20260905195006 0 90 0.0 0.9 0.03 0.82 0.61 1011.5
20260905194504 0 103 0.0 0.9 0.03 0.82 0.61 1011.5
20260905194003 0 103 0.0 0.9 0.03 0.82 0.61 1011.5
20260905193503 0 103 0.0 1.7 0.05 0.82 0.61 1011.7
20260905193007 0 96 0.0 1.7 0.05 0.82 0.61 1011.4
20260905192503 0 123 0.0 1.7 0.05 0.82 0.61 1011.4
20260905192004 0 126 0.9 1.7 0.05 0.82 0.61 1011.3
20260905191504 0 132 0.0 0.0 0.05 0.82 0.61 1011.8
20260905191004 0 132 0.0 1.7 0.04 0.81 0.60 1012.0
20260905190502 0 132 0.0 1.7 0.03 0.80 0.59 1012.1
20260905190004 0 21 0.0 1.7 0.03 0.80 0.59 1012.4
20260905185502 0 126 0.9 1.7 0.02 0.79 0.57 1012.3
20260905185001 0 360 0.0 0.0 0.02 0.79 0.57 1012.7
20260905184505 0 360 0.0 1.7 0.02 0.79 0.57 1012.1
20260905184001 0 360 0.9 1.7 0.01 0.78 0.56 1012.2
20260905183601 0 11 0.0 1.7 0.00 0.77 0.56 1011.9
20260905183002 0 350 0.0 1.7 0.00 0.77 0.56 1011.9
20260905182502 0 108 0.0 2.6 0.00 0.77 0.56 1011.9
20260905182101 0 123 0.0 2.6 0.00 0.77 0.56 1012.0
20260905181601 0 116 0.0 1.7 0.00 0.77 0.56 1012.0
20260905181058 0 23 0.0 2.6 0.00 0.77 0.56 1012.1
20260905180556 0 81 0.0 2.6 0.00 0.77 0.56 1012.0
20260905180055 0 349 0.0 2.6 0.01 0.77 0.56 1012.3
20260905175553 0 134 0.0 0.0 0.03 0.77 0.56 1012.4
20260905175052 0 130 0.0 1.7 0.05 0.77 0.56 1012.5
20260905174550 0 131 0.0 1.7 0.06 0.77 0.56 1012.7
20260905174048 0 82 0.0 0.9 0.09 0.77 0.56 1012.8
20260905173550 0 100 0.0 1.7 0.17 0.77 0.56 1013.0
20260905173046 0 111 0.0 0.9 0.24 0.77 0.56 1012.8
20260905172544 0 5 0.0 1.7 0.31 0.77 0.56 1012.6
20260905172043 0 5 0.0 1.7 0.43 0.77 0.56 1012.6
20260905171543 0 110 0.0 1.7 0.55 0.77 0.56 1012.7
20260905171039 0 107 0.0 2.6 0.56 0.77 0.56 1012.7
20260905170538 0 78 0.0 2.6 0.56 0.77 0.56 1013.0
20260905170038 0 94 0.0 0.9 0.55 0.76 0.55 1013.2
20260905165536 0 94 0.0 1.7 0.53 0.74 0.53 1013.7
20260905165033 0 92 0.0 1.7 0.51 0.72 0.51 1014.0
20260905164533 0 12 0.0 1.7 0.50 0.71 0.50 1013.9
20260905164030 0 22 0.0 1.7 0.46 0.67 0.46 1014.0
20260905163529 0 46 0.0 0.9 0.38 0.59 0.38 1014.0
20260905163028 0 65 0.0 1.7 0.32 0.53 0.32 1013.8
20260905162530 0 65 0.0 1.7 0.23 0.44 0.23 1014.1
20260905162025 0 117 0.0 1.7 0.12 0.33 0.12 1014.1
20260905161524 0 123 0.9 1.7 0.00 0.21 0.00 1014.3
20260905161026 0 349 0.0 2.6 0.00 0.21 0.00 1013.6
20260905160520 0 60 0.0 2.6 0.00 0.21 0.00 1013.1
20260905160026 0 355 0.0 1.7 0.00 0.21 0.00 1013.0
20260905155517 0 355 0.0 2.6 0.00 0.21 0.00 1012.8
20260905155016 0 142 0.9 2.6 0.00 0.21 0.00 1012.4
20260905154514 0 120 0.0 2.6 0.00 0.21 0.00 1012.4
20260905154013 0 19 0.9 2.6 0.00 0.21 0.00 1012.5
20260905153513 0 355 0.9 4.3 0.00 0.21 0.00 1012.5
20260905153010 0 317 1.7 4.3 0.00 0.21 0.00 1012.5
20260905152509 0 18 0.0 2.6 0.00 0.21 0.00 1012.6
20260905152010 0 82 0.0 2.6 0.00 0.21 0.00 1012.7
20260905151506 0 117 0.9 2.6 0.00 0.21 0.00 1012.7
20260905151006 0 317 0.9 3.5 0.00 0.21 0.00 1012.7
20260905150504 0 86 0.9 3.5 0.00 0.21 0.00 1012.7
20260905150002 0 336 0.9 2.6 0.00 0.21 0.00 1012.8
20260905145601 0 342 0.9 2.6 0.00 0.21 0.00 1012.7
20260905145058 0 136 0.9 3.5 0.00 0.21 0.00 1012.7
20260905144557 0 69 0.9 5.2 0.00 0.21 0.00 1012.7
20260905144056 0 94 0.9 5.2 0.00 0.21 0.00 1012.6
20260905143554 0 126 0.9 3.5 0.00 0.21 0.00 1012.7
20260905143053 0 360 0.0 1.7 0.00 0.21 0.00 1012.7
20260905142553 0 104 0.0 1.7 0.00 0.21 0.00 1012.7
20260905142053 0 104 0.0 2.6 0.00 0.21 0.00 1012.7
20260905141551 0 132 0.0 2.6 0.00 0.21 0.00 1012.7
20260905141052 0 85 0.0 2.6 0.00 0.21 0.00 1012.6
20260905140547 0 320 0.0 3.5 0.00 0.21 0.00 1012.4
20260905140048 0 327 0.0 3.5 0.00 0.21 0.00 1012.4
20260905135545 0 327 0.9 3.5 0.00 0.21 0.00 1012.3
20260905135042 0 116 0.0 2.6 0.00 0.21 0.00 1012.2
20260905134542 0 148 0.0 2.6 0.00 0.21 0.00 1012.2
20260905134040 0 82 0.0 2.6 0.00 0.21 0.00 1012.2
20260905133538 0 316 0.9 2.6 0.00 0.21 0.00 1012.2
20260905133044 0 316 0.0 3.5 0.00 0.21 0.00 1012.1
20260905132536 0 108 0.0 1.7 0.00 0.21 0.00 1012.3
20260905132035 0 128 0.0 1.7 0.00 0.21 0.00 1012.3
20260905131535 0 125 0.0 1.7 0.00 0.21 0.00 1012.3
20260905131031 0 92 0.0 1.7 0.00 0.21 0.00 1012.1
20260905130529 0 111 0.0 1.7 0.00 0.21 0.00 1012.0
20260905130031 0 111 0.0 0.0 0.00 0.21 0.00 1011.9
20260905125527 0 111 0.0 0.0 0.00 0.21 0.00 1011.9
20260905125026 0 111 0.0 0.0 0.00 0.21 0.00 1012.0
20260905124525 0 111 0.0 1.7 0.00 0.21 0.00 1012.1
20260905124026 0 111 0.0 1.7 0.00 0.21 0.00 1012.3
20260905123521 0 121 0.0 0.9 0.00 0.21 0.00 1012.2
20260905123019 0 111 0.0 0.9 0.00 0.21 0.00 1012.3
20260905122518 0 111 0.0 0.0 0.00 0.21 0.00 1012.4
20260905122016 0 111 0.0 0.0 0.00 0.21 0.00 1012.3
20260905121515 0 111 0.0 0.0 0.00 0.21 0.00 1012.3
20260905121014 0 111 0.0 1.7 0.00 0.21 0.00 1012.4
20260905120513 0 109 0.0 1.7 0.00 0.21 0.00 1012.3
20260905120015 0 121 0.0 1.7 0.00 0.21 0.00 1012.1
20260905115512 0 107 0.0 0.0 0.00 0.21 0.00 1012.2
20260905115008 0 107 0.0 0.0 0.00 0.21 0.00 1012.2
20260905114506 0 107 0.0 0.0 0.00 0.21 0.00 1012.2
20260905114005 0 107 0.0 0.0 0.00 0.21 0.00 1012.0
20260905113504 0 107 0.0 0.9 0.00 0.21 0.00 1012.0
20260905113002 0 107 0.0 0.9 0.00 0.21 0.00 1012.0
20260905112500 0 78 0.0 1.7 0.00 0.21 0.00 1011.9
20260905112059 0 118 0.0 1.7 0.00 0.21 0.00 1011.9
20260905111644 0 116 0.0 0.0 0.00 0.21 0.00 1012.0
20260905111057 0 116 0.0 0.0 0.00 0.21 0.00 1012.1
20260905110557 0 116 0.0 0.9 0.00 0.21 0.00 1011.9
20260905110054 0 116 0.0 0.9 0.00 0.21 0.00 1012.0
20260905105552 0 105 0.0 0.9 0.00 0.21 0.00 1011.9
20260905105053 0 103 0.0 0.9 0.00 0.21 0.00 1011.9
20260905104552 0 106 0.0 0.0 0.00 0.21 0.00 1011.8
20260905104051 0 106 0.0 0.0 0.00 0.21 0.00 1011.7
20260905103546 0 106 0.0 0.0 0.00 0.21 0.00 1011.6
20260905103045 0 106 0.0 0.0 0.00 0.21 0.00 1011.7
20260905102543 0 106 0.0 0.9 0.00 0.21 0.00 1011.6
20260905102041 0 106 0.0 0.9 0.00 0.21 0.00 1011.5
20260905101549 0 105 0.0 0.9 0.00 0.21 0.00 1011.4
20260905101039 0 92 0.0 0.9 0.00 0.21 0.00 1011.4
20260905100537 0 100 0.0 0.0 0.00 0.21 0.00 1011.5
20260905100043 0 100 0.0 0.0 0.00 0.21 0.00 1011.4
20260905095534 0 100 0.0 0.0 0.00 0.21 0.00 1011.4
20260905095032 0 100 0.0 0.0 0.00 0.21 0.00 1011.4
20260905094531 0 100 0.0 0.9 0.00 0.21 0.00 1011.3
20260905094029 0 100 0.0 0.9 0.00 0.21 0.00 1011.2
20260905093528 0 117 0.0 0.9 0.00 0.21 0.00 1011.3
20260905093027 0 88 0.0 0.9 0.00 0.21 0.00 1011.3
20260905092525 0 122 0.0 0.0 0.00 0.21 0.00 1011.2
20260905092025 0 122 0.0 0.0 0.00 0.21 0.00 1011.1
20260905091526 0 122 0.0 0.0 0.00 0.21 0.00 1011.3
20260905091022 0 122 0.0 0.0 0.00 0.21 0.00 1011.2
20260905090520 0 122 0.0 0.9 0.00 0.21 0.00 1011.2
20260905090020 0 122 0.0 1.7 0.00 0.21 0.00 1011.2
20260905085516 0 115 0.0 1.7 0.00 0.21 0.00 1011.3
20260905085016 0 126 0.9 1.7 0.00 0.21 0.00 1011.2
20260905084513 0 98 0.0 0.0 0.00 0.21 0.00 1011.2
20260905084012 0 97 0.0 0.0 0.00 0.21 0.00 1011.4
20260905083511 0 97 0.0 0.0 0.00 0.21 0.00 1011.3
20260905083010 0 97 0.0 0.0 0.00 0.21 0.00 1011.3
20260905082509 0 97 0.0 0.9 0.00 0.21 0.00 1011.4
20260905082008 0 106 0.0 0.9 0.00 0.21 0.00 1011.4
20260905081505 0 122 0.0 0.9 0.00 0.21 0.00 1011.4
20260905081006 0 111 0.0 0.9 0.00 0.21 0.00 1011.4
20260905080502 0 115 0.0 0.0 0.00 0.21 0.00 1011.5
20260905080002 0 115 0.0 0.0 0.00 0.21 0.00 1011.5
20260905075703 0 115 0.0 0.0 0.00 0.21 0.00 1011.5
20260905075057 0 115 0.0 0.9 0.00 0.21 0.00 1011.5
20260905074557 0 108 0.0 1.7 0.00 0.21 0.00 1011.6
20260905074056 0 107 0.0 1.7 0.00 0.21 0.00 1011.7
20260905073553 0 121 0.0 0.0 0.00 0.21 0.00 1011.7
20260905073055 0 121 0.0 0.0 0.00 0.21 0.00 1011.7
20260905072551 0 121 0.0 0.0 0.00 0.21 0.00 1011.7
20260905072050 0 121 0.0 0.9 0.00 0.21 0.00 1011.7
20260905071548 0 121 0.0 1.7 0.00 0.21 0.00 1011.7
20260905071047 0 122 0.0 1.7 0.00 0.21 0.00 1011.8